• In Germany
  • List of Countries
  • For 7 days
  • Water Temperature
  • Satellite Maps
  • Weather Map
  • Weather Widgets
  • user-avatar
    Login

    Hourly Weather Durres

    Today, 13 December, Wednesday

    Time Temperature Precipitation Wind Pressure Humidity
    00:00 +10°C° 0 mm 7 mps 764 mmHg 84%
    01:00 +10°C° 0 mm 7 mps 764 mmHg 86%
    02:00 +10°C° 0 mm 7 mps 764 mmHg 85%
    03:00 +10°C° 0 mm 8 mps 764 mmHg 85%
    04:00 +10°C° 0 mm 8 mps 764 mmHg 84%
    05:00 +10°C° 0 mm 8 mps 764 mmHg 84%
    06:00 +10°C° 0 mm 8 mps 764 mmHg 84%
    07:00 +10°C° 0 mm 8 mps 764 mmHg 83%
    08:00 +11°C° 0 mm 8 mps 764 mmHg 79%
    09:00 +13°C° 0 mm 8 mps 764 mmHg 75%
    10:00 +15°C° 0 mm 8 mps 764 mmHg 70%
    11:00 +16°C° 0.1 mm 8 mps 763 mmHg 69%
    12:00 +16°C° 0.1 mm 8 mps 763 mmHg 67%
    13:00 +17°C° 0.1 mm 9 mps 762 mmHg 66%
    14:00 +16°C° 0.3 mm 9 mps 762 mmHg 71%
    15:00 +15°C° 0.3 mm 9 mps 762 mmHg 77%
    16:00 +13°C° 0.3 mm 8 mps 761 mmHg 82%
    17:00 +13°C° 1 mm 8 mps 761 mmHg 85%
    18:00 +12°C° 1 mm 8 mps 761 mmHg 87%
    19:00 +12°C° 1 mm 8 mps 761 mmHg 89%
    20:00 +12°C° 1.4 mm 8 mps 761 mmHg 91%
    21:00 +12°C° 1.4 mm 8 mps 761 mmHg 92%
    22:00 +12°C° 1.4 mm 7 mps 761 mmHg 94%
    23:00 +11°C° 0.8 mm 7 mps 761 mmHg 93%

    Tomorrow, 14 December, Thursday

    Time Temperature Precipitation Wind Pressure Humidity
    00:00 +11°C° 0.8 mm 6 mps 761 mmHg 92%
    01:00 +11°C° 0.8 mm 6 mps 761 mmHg 91%
    02:00 +11°C° 0.1 mm 6 mps 761 mmHg 92%
    03:00 +10°C° 0.1 mm 5 mps 761 mmHg 92%
    04:00 +10°C° 0.1 mm 5 mps 761 mmHg 93%
    05:00 +9°C° 0 mm 5 mps 761 mmHg 92%
    06:00 +10°C° 0 mm 4 mps 762 mmHg 91%
    07:00 +10°C° 0 mm 4 mps 762 mmHg 89%
    08:00 +11°C° 0 mm 4 mps 762 mmHg 82%
    09:00 +11°C° 0 mm 3 mps 762 mmHg 75%
    10:00 +12°C° 0 mm 3 mps 762 mmHg 68%
    11:00 +12°C° 0 mm 3 mps 762 mmHg 66%
    12:00 +12°C° 0 mm 3 mps 762 mmHg 64%
    13:00 +13°C° 0 mm 3 mps 762 mmHg 62%
    14:00 +12°C° 0 mm 4 mps 762 mmHg 66%
    15:00 +11°C° 0 mm 4 mps 762 mmHg 70%
    16:00 +11°C° 0 mm 4 mps 762 mmHg 74%
    17:00 +9°C° 0 mm 5 mps 762 mmHg 74%
    18:00 +9°C° 0 mm 5 mps 762 mmHg 74%
    19:00 +9°C° 0 mm 6 mps 762 mmHg 74%
    20:00 +9°C° 0 mm 6 mps 762 mmHg 74%
    21:00 +9°C° 0 mm 6 mps 762 mmHg 74%
    22:00 +9°C° 0 mm 6 mps 762 mmHg 74%
    23:00 +9°C° 0 mm 6 mps 762 mmHg 74%

    Day after tomorrow, 15 December, Friday

    Time Temperature Precipitation Wind Pressure Humidity
    00:00 +9°C° 0 mm 6 mps 761 mmHg 74%
    01:00 +9°C° 0 mm 6 mps 761 mmHg 74%
    02:00 +9°C° 0 mm 6 mps 761 mmHg 74%
    03:00 +9°C° 0 mm 6 mps 761 mmHg 73%
    04:00 +9°C° 0 mm 6 mps 760 mmHg 72%
    05:00 +9°C° 0 mm 7 mps 760 mmHg 71%
    06:00 +9°C° 0 mm 7 mps 760 mmHg 70%
    07:00 +9°C° 0 mm 7 mps 760 mmHg 69%
    08:00 +10°C° 0 mm 8 mps 760 mmHg 67%
    09:00 +11°C° 0 mm 8 mps 760 mmHg 65%
    10:00 +12°C° 0 mm 9 mps 759 mmHg 63%
    11:00 +13°C° 0 mm 9 mps 759 mmHg 64%
    12:00 +14°C° 0 mm 10 mps 758 mmHg 65%
    13:00 +16°C° 0 mm 10 mps 758 mmHg 66%
    14:00 +14°C° 0 mm 10 mps 757 mmHg 71%
    15:00 +13°C° 0 mm 10 mps 757 mmHg 76%
    16:00 +12°C° 0 mm 10 mps 757 mmHg 81%
    17:00 +12°C° 0 mm 10 mps 757 mmHg 82%
    18:00 +11°C° 0 mm 10 mps 757 mmHg 83%
    19:00 +9°C° 0 mm 10 mps 757 mmHg 84%
    20:00 +9°C° 0 mm 10 mps 757 mmHg 84%
    21:00 +9°C° 0 mm 10 mps 757 mmHg 84%
    22:00 +9°C° 0 mm 10 mps 757 mmHg 83%
    23:00 +9°C° 0 mm 10 mps 756 mmHg 84%

    16 December, Saturday

    Time Temperature Precipitation Wind Pressure Humidity
    00:00 +9°C° 0 mm 10 mps 756 mmHg 85%
    01:00 +11°C° 0 mm 10 mps 756 mmHg 86%
    02:00 +9°C° 0 mm 10 mps 755 mmHg 86%
    03:00 +9°C° 0 mm 10 mps 755 mmHg 86%
    04:00 +9°C° 0 mm 11 mps 754 mmHg 86%
    05:00 +9°C° 0.2 mm 10 mps 754 mmHg 86%
    06:00 +9°C° 0.2 mm 10 mps 754 mmHg 85%
    07:00 +9°C° 0.2 mm 10 mps 754 mmHg 85%
    08:00 +12°C° 0.3 mm 11 mps 754 mmHg 82%
    09:00 +13°C° 0.3 mm 11 mps 754 mmHg 79%
    10:00 +14°C° 0.3 mm 11 mps 754 mmHg 75%
    11:00 +14°C° 1.1 mm 11 mps 754 mmHg 76%
    12:00 +14°C° 1.1 mm 10 mps 754 mmHg 77%
    13:00 +14°C° 1.1 mm 10 mps 753 mmHg 79%
    14:00 +13°C° 2.3 mm 8 mps 753 mmHg 84%
    15:00 +13°C° 2.3 mm 6 mps 753 mmHg 89%
    16:00 +12°C° 2.3 mm 4 mps 753 mmHg 94%
    17:00 +12°C° 2.2 mm 4 mps 753 mmHg 94%
    18:00 +11°C° 2.2 mm 3 mps 753 mmHg 94%
    19:00 +12°C° 2.2 mm 2 mps 753 mmHg 94%
    20:00 +12°C° 2.2 mm 2 mps 752 mmHg 93%
    21:00 +12°C° 2.2 mm 2 mps 752 mmHg 93%
    22:00 +11°C° 2.2 mm 3 mps 752 mmHg 93%
    23:00 +10°C° 1.3 mm 3 mps 752 mmHg 94%

    17 December, Sunday

    Time Temperature Precipitation Wind Pressure Humidity
    00:00 +10°C° 1.3 mm 4 mps 752 mmHg 95%
    01:00 +10°C° 1.3 mm 4 mps 752 mmHg 96%
    02:00 +8°C° 0.6 mm 4 mps 753 mmHg 96%
    03:00 +8°C° 0.6 mm 4 mps 754 mmHg 95%
    04:00 +8°C° 0.6 mm 5 mps 754 mmHg 95%
    05:00 +7°C° 0.2 mm 4 mps 755 mmHg 94%
    06:00 +7°C° 0.2 mm 4 mps 756 mmHg 93%
    07:00 +7°C° 0.2 mm 4 mps 757 mmHg 91%
    08:00 +7°C° 0.4 mm 4 mps 757 mmHg 85%
    09:00 +9°C° 0.4 mm 3 mps 758 mmHg 79%
    10:00 +10°C° 0.4 mm 3 mps 758 mmHg 73%
    11:00 +11°C° 0.4 mm 3 mps 759 mmHg 70%
    12:00 +11°C° 0.4 mm 3 mps 759 mmHg 66%
    13:00 +11°C° 0.4 mm 3 mps 759 mmHg 63%
    14:00 +11°C° 0.3 mm 3 mps 759 mmHg 67%
    15:00 +10°C° 0.3 mm 3 mps 760 mmHg 72%
    16:00 +9°C° 0.3 mm 3 mps 760 mmHg 77%
    17:00 +9°C° 0.2 mm 3 mps 761 mmHg 78%
    18:00 +7°C° 0.2 mm 4 mps 762 mmHg 79%
    19:00 +7°C° 0.2 mm 4 mps 762 mmHg 80%
    20:00 +6°C° 0.1 mm 4 mps 763 mmHg 80%
    21:00 +6°C° 0.1 mm 5 mps 763 mmHg 79%
    22:00 +6°C° 0.1 mm 5 mps 764 mmHg 78%
    23:00 +5°C° 0.1 mm 5 mps 764 mmHg 78%

    18 December, Monday

    Time Temperature Precipitation Wind Pressure Humidity
    00:00 +5°C° 0.1 mm 5 mps 764 mmHg 78%
    01:00 +5°C° 0.1 mm 5 mps 764 mmHg 79%
    02:00 +5°C° 0.1 mm 5 mps 765 mmHg 78%
    03:00 +3°C° 0.1 mm 5 mps 765 mmHg 77%
    04:00 +3°C° 0.1 mm 6 mps 765 mmHg 77%
    05:00 +3°C° 0 mm 5 mps 765 mmHg 76%
    06:00 +3°C° 0 mm 5 mps 765 mmHg 75%
    07:00 +2°C° 0 mm 5 mps 766 mmHg 75%
    08:00 +3°C° 0 mm 5 mps 766 mmHg 70%
    09:00 +6°C° 0 mm 5 mps 766 mmHg 65%
    10:00 +7°C° 0 mm 5 mps 766 mmHg 60%
    11:00 +7°C° 0 mm 5 mps 766 mmHg 58%
    12:00 +8°C° 0 mm 5 mps 765 mmHg 56%
    13:00 +8°C° 0 mm 5 mps 765 mmHg 54%
    14:00 +7°C° 0 mm 5 mps 765 mmHg 58%
    15:00 +7°C° 0 mm 5 mps 765 mmHg 63%
    16:00 +6°C° 0 mm 5 mps 765 mmHg 67%
    17:00 +5°C° 0 mm 5 mps 765 mmHg 69%
    18:00 +3°C° 0 mm 5 mps 766 mmHg 71%
    19:00 +3°C° 0 mm 5 mps 766 mmHg 73%
    20:00 +2°C° 0 mm 5 mps 766 mmHg 73%
    21:00 +2°C° 0 mm 5 mps 766 mmHg 73%
    22:00 +2°C° 0 mm 5 mps 766 mmHg 73%
    23:00 +2°C° 0 mm 5 mps 766 mmHg 73%
    Show more